Hourly Data Report for October 05, 2014

All times are specified in Local Standard Time (LST). Add 1 hour to adjust for Daylight Saving Time where and when it is observed.

POND INLET A
NUNAVUT

72°41'22.000" N
77°58'08.000" W
61.60 m
2403206
71095
YIO

Download Data

Hourly Data (October 2014)
Hourly Data Report for October 5, 2014
Temp Definition
°C
Dew Point Temp Definition
°C
Rel Hum Definition
%
Wind Dir Definition
10's deg

Wind Spd Definition
km/h
Visibility Definition
km
Stn Press Definition
kPa
Hmdx Definition


Wind Chill Definition


Weather Definition


TIME
00:00 Legend Double Dagger -7.1 -9.2 85 16 15 16.1 101.46   -13 LegendNANA
01:00 Legend Double Dagger -7.0 -9.3 84 16 15 16.1 101.51   -13 Snow
02:00 Legend Double Dagger -7.6 -9.9 84 16 21 16.1 101.53   -15 LegendNANA
03:00 Legend Double Dagger -7.6 -9.7 85 15 17 16.1 101.56   -14 LegendNANA
04:00 Legend Double Dagger -7.7 -9.8 85 16 18 16.1 101.59   -15 LegendNANA
05:00 Legend Double Dagger -7.3 -9.9 82 16 21 16.1 101.64   -15 LegendNANA
06:00 Legend Double Dagger -7.1 -9.6 83 15 13 16.1 101.72   -13 LegendNANA
07:00 Legend Double Dagger -7.6 -10.0 83 15 18 16.1 101.78   -14 LegendNANA
08:00 Legend Double Dagger -7.3 -9.5 85 15 15 16.1 101.83   -13 LegendNANA
09:00 Legend Double Dagger -7.7 -10.1 83 15 21 16.1 101.85   -15 LegendNANA
10:00 Legend Double Dagger -8.5 -10.9 83 15 18 16.1 101.87   -16 LegendNANA
11:00 Legend Double Dagger -9.2 -11.6 83 15 18 16.1 101.90   -16 LegendNANA
12:00 Legend Double Dagger -7.9 -10.7 81 14 18 16.1 101.94   -15 LegendNANA
13:00 Legend Double Dagger -8.3 -11.2 80 15 17 16.1 102.00   -15 LegendNANA
14:00 Legend Double Dagger -8.3 -11.7 77 15 17 16.1 102.05   -15 LegendNANA
15:00 Legend Double Dagger -8.9 -11.9 79 15 18 16.1 102.08   -16 LegendNANA
16:00 Legend Double Dagger -9.0 -11.2 84 14 17 16.1 102.13   -16 LegendNANA
17:00 Legend Double Dagger -10.4 -12.5 85 14 21 16.1 102.19   -19 LegendNANA
18:00 Legend Double Dagger -10.8 -14.1 77 14 21 16.1 102.23   -19 LegendNANA
19:00 Legend Double Dagger -10.5 -13.1 81 14 21 16.1 102.24   -19 LegendNANA
20:00 Legend Double Dagger -11.3 -12.6 91 15 13 16.1 102.26   -18 LegendNANA
21:00 Legend Double Dagger -11.1 -12.5 90 15 17 16.1 102.25   -19 LegendNANA
22:00 Legend Double Dagger -10.3 -11.9 88 16 11 16.1 102.26   -16 LegendNANA
23:00 Legend Double Dagger -9.4 -10.9 89 16 9 16.1 102.25   -14 LegendNANA

Notes on Data Quality.

Legend

  • E = Estimated
  • M = Missing
  • NA = Not Available
  • ‡ = Partner data that is not subject to review by the National Climate Archives
Date modified: